Regional Weather Roundup
Issued by NWS

Home | Current Version | Previous Version | Text Only | Print | Product List | Glossary Off
Versions: 1 2 3 4 5 6 7 8 9 10 11 12 13 14 15 16 17 18 19 20 21 22 23 24 25 26 27 28 29 30 31 32 33 34 35 36 37 38 39 40 41 42 43 44 45 46 47 48 49 50

890
ASUS45 KTFX 171210
RWRMT
MONTANA REGIONAL WEATHER ROUNDUP
NATIONAL WEATHER SERVICE GREAT FALLS MT
600 AM MDT TUE OCT 17 2017

NOTE: "FAIR" INDICATES FEW OR NO CLOUDS BELOW 12000 FEET WITH NO
SIGNIFICANT WEATHER AND/OR OBSTRUCTIONS TO VISIBILITY.

MTZ001>007-043-171300-
WEST OF THE DIVIDE

CITY           SKY/WX    TMP DP  RH WIND       PRES   REMARKS
KALISPELL      CLEAR     29  27  92 SW3       29.99F
MISSOULA       CLEAR     28  25  88 CALM      30.10F
BUTTE          CLEAR     29  23  78 NW3       30.18F
MULLAN PASS    CLEAR     39  23  52 VRB3      30.08F
ANACONDA         N/A     46  21  36 SE15      30.14S
DEER LODGE       N/A     46  23  39 SW6       30.14F
EUREKA           N/A     45  28  53 MISG      29.96F
HAMILTON         N/A     46  25  42 S18       30.10F
LIBBY            N/A     30  30 100 W3        29.97F
PLAINS           N/A     28  22  78 CALM      30.05F
$$

MTZ008-052>055-171300-
SOUTHWEST MONTANA

CITY           SKY/WX    TMP DP  RH WIND       PRES   REMARKS
BOZEMAN        CLOUDY    32  24  72 SE7       30.15F WCI  26
DILLON         CLOUDY    37  20  50 S9        30.20S WCI  30
W YELLOWSTONE  CLOUDY    18  16  93 CALM      30.34S
ENNIS          CLOUDY    36  21  55 S13G18    30.26F WCI  27
THREE FORKS      N/A     28  22  78 NW2       30.11F
$$

MTZ009-010-012-014-046-048-049-054-171300-
EAST SLOPES AND CENTRAL MONTANA

CITY           SKY/WX    TMP DP  RH WIND       PRES   REMARKS
CUT BANK       PTCLDY    55  19  24 W36       29.84S
GREAT FALLS    PTCLDY    55  21  26 SW14      29.96S
MALMSTROM AFB  CLOUDY    52  23  32 SW17      29.95F
HELENA         CLOUDY    39  29  67 W8        30.08S
CHOTEAU          N/A     57  21  24 SW21      29.94F
$$

MTZ011-013-016-021-045-047-050-051-171300-
NORTH CENTRAL MONTANA

CITY           SKY/WX    TMP DP  RH WIND       PRES   REMARKS
HAVRE          PTCLDY    57  26  30 SW26G32   29.84F
LEWISTOWN      CLOUDY    51  21  30 SW12      29.99F
N BAR RANCH      N/A     57   9  14 W10       29.99S
CHINOOK          N/A     63  25  23 SW22G30   29.80F
$$

MTZ017>020-022>027-061-062-171300-
NORTHEAST MONTANA

CITY           SKY/WX    TMP DP  RH WIND       PRES   REMARKS
GLASGOW        CLOUDY    49  27  42 W7        29.85S
JORDAN           N/A     49  26  41 W6        29.90S
SIDNEY         CLOUDY    40  31  70 SW12      29.88F
WOLF POINT     CLOUDY    37  29  72 CALM      29.86F
MALTA          CLEAR     59  25  27 W20       29.81S
PLENTYWOOD       N/A     45  27  49 CALM      29.80F
POPLAR           N/A     43  30  61 CALM      29.86S
SCOBEY           N/A     50  23  34 SW8       29.81F
$$

MTZ028>42-056>058-171300-
SOUTHCENTRAL AND SOUTHEAST MONTANA

CITY           SKY/WX    TMP DP  RH WIND       PRES   REMARKS
BAKER          CLEAR     49  27  42 SW13      29.98S
BILLINGS       CLEAR     52  21  29 SW14      30.05S
LIVINGSTON     CLOUDY    52  20  28 SW30G43   30.12F
MILES CITY     CLEAR     42  29  59 S6        29.97S
BIG TIMBER     CLEAR     50  18  27 W26G35    30.09F
EKALAKA          N/A     55  18  23 S7        29.99F
FORSYTH          N/A     57  21  24 SW7       29.97S
LAUREL           N/A     45  21  39 SW8       30.06S
$$

REGIONAL REPORTS...DAKOTAS

CITY           SKY/WX    TMP DP  RH WIND       PRES   REMARKS
WILLISTON      CLOUDY    43  32  65 SW10      29.85F
MINOT          CLOUDY    49  32  52 SW12      29.81F
DICKINSON      CLEAR     46  27  47 W12       29.91S
BEACH            N/A     46  25  42 SW13      29.97S
CROSBY           N/A     43  30  61 SW15      29.78F
TIOGA            N/A     45  30  57 SW14      29.84F
WATFORD CITY     N/A     41  30  65 SW9       29.87S
BISMARCK       CLOUDY    34  31  88 E5        29.93F
GRAND FORKS    CLOUDY    35  32  88 S7        29.89S WCI  29
FARGO          CLEAR     40  35  83 S6        29.94S
BUFFALO SD       N/A     46  25  43 W10       29.95R
RAPID CITY     CLEAR     47  24  40 NW12      30.06S
$$

REGIONAL REPORTS...WYOMING/IDAHO/WASHINGTON

CITY           SKY/WX    TMP DP  RH WIND       PRES   REMARKS
GILLETTE       CLOUDY    46  22  38 CALM      30.09F
SHERIDAN       CLOUDY    36  25  64 SW6       30.07F WCI  31
BUFFALO WY     CLOUDY    49  12  22 W7        30.12S
CODY           CLEAR     55  16  21 W8        30.18S
YELLOWSTONE LA   N/A     21  52 100 NW3       30.38R
IDAHO FALLS    CLOUDY    26  23  88 N3        30.31S
SALMON         CLOUDY    28  24  85 CALM      30.27S
BOISE          CLEAR     39  30  70 CALM      30.21R
SPOKANE        CLEAR     45  33  63 S10       29.98F
$$

REGIONAL REPORTS...ALBERTA

CITY           SKY/WX    TMP DP  RH WIND       PRES   REMARKS
EDMONTON       CLEAR     39  36  87 SE3       29.46F
CALGARY        PTCLDY    45  32  61 SE3       29.57F
LETHBRIDGE     CLEAR     54  30  40 SW14      29.74F
MEDICINE HAT   CLEAR     55  32  41 SW16G24   29.64F
$$

REGIONAL REPORTS...SASKATCHEWAN

CITY           SKY/WX    TMP DP  RH WIND       PRES   REMARKS
SWIFT CURRENT  CLEAR     45  27  49 SW17G23   29.71S
REGINA         CLEAR     45  28  53 SW12      29.68F
SASKATOON      CLEAR     39  32  75 SW9       29.60S
$$




USA.gov is the U.S. government's official web portal to all federal, state and local government web resources and services.